Regional Weather Roundup
Issued by NWS Wilmington, NC

Current Version | Previous Version | Text Only | Print | Product List | Glossary On
Versions: 1 2 3 4 5 6 7 8 9 10 11 12 13 14 15 16 17 18 19 20 21 22 23 24 25 26 27 28 29 30 31 32 33 34 35 36 37 38 39 40 41 42 43 44 45 46 47 48 49 50
000
ASUS42 KILM 210810
RWRILM
RWRILM
REGIONAL HOURLY WEATHER ROUNDUP
NATIONAL WEATHER SERVICE WILMINGTON NC
400 AM EDT THU AUG 21 2014

NOTE: "FAIR" INDICATES FEW OR NO CLOUDS BELOW 12,000 FEET WITH NO
SIGNIFICANT WEATHER AND/OR OBSTRUCTIONS TO VISIBILITY.

...............WFO WILMINGTON COUNTY WARNING AREA...............

......COASTAL NC AND SC COUNTIES......

CITY           SKY/WX    TMP DP  RH WIND       PRES   REMARKS
WILMINGTON     CLEAR     75  73  93 CALM      29.99F
SOUTHPORT      PTCLDY    77  75  95 CALM      29.99F
N MYRTLE BEACH CLEAR     76  75  97 CALM      29.99S FOG
MYRTLE BEACH   CLEAR     81  73  78 SW3       29.99F

......INLAND NC AND SC COUNTIES.......

CITY           SKY/WX    TMP DP  RH WIND       PRES   REMARKS
LUMBERTON      CLEAR     75  73  93 CALM      29.98F FOG
ELIZABETHTOWN  CLEAR     77  76  96 S3        29.99S
WHITEVILLE     CLEAR     75  73  94 CALM      29.98F
FLORENCE       CLEAR     75  73  93 CALM      29.99S
DARLINGTON     CLEAR     73  70  88 CALM      29.99F

....................REST OF NORTH CAROLINA......................

.........EASTERN NC.........

CITY           SKY/WX    TMP DP  RH WIND       PRES   REMARKS
CAPE HATTERAS  CLEAR     78  74  87 S5        30.00S
JACKSONVILLE   PTCLDY    72  70  94 CALM      29.99F
MOREHEAD CITY  CLEAR     80  77  90 SW6       29.99F
KENANSVILLE    CLEAR     71  70  96 CALM      29.99F FOG
NEW BERN       PTCLDY    77  74  90 CALM      29.99F FOG
ELIZABETH CITY PTCLDY    75  72  90 SE3       29.99S

.........CENTRAL NC.........

CITY           SKY/WX    TMP DP  RH WIND       PRES   REMARKS
RALEIGH DURHAM MOCLDY    72  70  93 CALM      29.99S FOG
ROCKY MOUNT    PTCLDY    73  71  93 CALM      29.98F FOG
ROANOKE RAPIDS NOT AVBL
FAYETTEVILLE   CLEAR     76  73  91 SW6       29.98S
HOFFMAN        CLEAR     72  71  97 NW5       30.01S

.........WESTERN NC.........

CITY           SKY/WX    TMP DP  RH WIND       PRES   REMARKS
CHARLOTTE      PTCLDY    71  67  87 CALM      30.04S
GREENSBORO     CLOUDY    73  70  90 W5        30.03S
HICKORY        NOT AVBL
BOONE          NOT AVBL
ASHEVILLE      NOT AVBL

.....................REST OF SOUTH CAROLINA.....................

.........EASTERN SC.........

CITY           SKY/WX    TMP DP  RH WIND       PRES   REMARKS
CHARLESTON     MOCLDY    80  72  76 W3        30.01S
BEAUFORT MCAS  PTCLDY    77  70  79 N5        30.03R
HILTON HEAD    NOT AVBL

.........CENTRAL SC.........

CITY           SKY/WX    TMP DP  RH WIND       PRES   REMARKS
COLUMBIA       PTCLDY    76  70  82 W3        29.99F
ORANGEBURG     MOCLDY    74  69  85 S3        30.01F
SUMTER SHAW    PTCLDY    78  72  82 NW3       29.98F

.........WESTERN SC.........

CITY           SKY/WX    TMP DP  RH WIND       PRES   REMARKS
GREENVILLE     NOT AVBL
ROCK HILL      CLEAR     72  70  93 W3        30.04R
ANDERSON       PTCLDY    70  66  87 CALM      30.05S
CLEMSON        NOT AVBL
GREENWOOD      PTCLDY    71  66  84 NW3       30.07R


...................COASTAL AND OFFSHORE REPORTS..................

................LOCAL PIERS AND NC RESERVE................


STATION/POSITION TIME  SKY/WX   TEMP    WIND        PRES    VSBY
                                AIR SEA DIR/SP/G
                 (UTC)          (F)     (DEG/KT/KT) (MB)    (MI)
JOHNY MRCER PIER 0800            81 83  160/  4/  5 1015.1S
NC RESRV MASNBRO 0700            77        CALM     1016.0S
OCEAN CREST PIER 0800            83 85  190/  7/  7 1014.6F
SPRINGMAID  PIER 0800            81 83  230/  4/  5 1015.6F


................COASTAL AND OFFSHORE BUOYS................


STATION/POSITION TIME  SKY/WX   TEMP    WIND        PRES    VSBY
                                AIR SEA DIR/SP/G
                 (UTC)          (F)     (DEG/KT/KT) (MB)    (MI)
DIMNDSHOAL 41025 0800            78     200/  4/  6 1015.6F
WVE H/P(F/S)=  2/ 7 SWL H/P/D(F/S/D)=  2/ 60/ 7

CAPE LOOKOUT     0700            80     210/  4/  5 1015.8F
ONSLOW BAY 41036 0800            81 82  220/  6/  8 1015.4S
WVE H/P(F/S)=  3/ 6 WND WVE H/P(F/S)=  2/ 4 SWL H/P/D(F/S/D)=  2/200/ 6

5 WRITEBCH 41038 0800            78 82  140/  4/  6   N/A
MASONBORO  41110 0800               82                N/A
WVE H/P(F/S)=  2/ 5 WND WVE H/P(F/S)=  2/ 5

WILM HARBR 41108 0800               84                N/A
WVE H/P(F/S)=  2/ 6 WND WVE H/P(F/S)=  2/ 6

27WRITEBCH 41037 0700            79 83  210/  8/  8 1015.9F
FRYING PAN 41013 NOT AVBL
SUNST NRSH 41024 NOT AVBL
CAPRS NRSH 41029 0700            84     290/  6/  8   N/A
EDISTO     41004 0800            83 83  230/ 12/ 14 1015.3F
WVE H/P(F/S)=  3/ 5 WND WVE H/P(F/S)=  2/ 5 SWL H/P/D(F/S/D)=  2/ 8



..........OFFSHORE BUOYS BEYOND 100 NM OFFSHORE...........
.....IN A TRIANGLE---HAT TO BERMUDA TO BAHAMAS TO HAT.....


STATION/POSITION TIME  SKY/WX   TEMP    WIND        PRES    VSBY
                                AIR SEA DIR/SP/G
                 (UTC)          (F)     (DEG/KT/KT) (MB)    (MI)
150E HAT   41001 NOT AVBL
W BERMUDA  41048 0734            76 81  260/ 16/ 23 1018.1R
WVE H/P(F/S)=  5/ 7 WND WVE H/P(F/S)=  5/ 7

ATLANTIC S 41049 0707            84 85  100/  8/ 10 1020.0F
WVE H/P(F/S)=  2/ 7 WND WVE H/P(F/S)=  2/ 3 SWL H/P/D(F/S/D)=  2/ 90/ 7

E BAHAMAS  41046 0731            84 85   90/ 12/ 14 1018.1F
WVE H/P(F/S)=  3/ 5 WND WVE H/P(F/S)=  3/ 5 SWL H/P/D(F/S/D)=  2/130/ 6

NE BAHAMAS 41047 0733            82 84  240/  4/  6 1020.3F
WVE H/P(F/S)=  3/ 9 WND WVE H/P(F/S)=  2/ 3 SWL H/P/D(F/S/D)=  2/110/ 9

120E CANVRL41010 0800            84 85  190/ 14/ 14 1018.1S
WVE H/P(F/S)=  2/ 3 WND WVE H/P(F/S)=  2/ 3 SWL H/P/D(F/S/D)=  2/140/ 7


END


USA.gov is the U.S. government's official web portal to all federal, state and local government web resources and services.